,,,PA_Meas_PMT16A,,PR_Meas_QMR101_102,,RH_Meas_QMH101,,SR_Meas_QMS101,,TA_Meas_QMH101,,GenWind,,GenWind,
date,time,status,PA,status,PR,status,RH,status,SR,status,TA,status,DirAvg,status,SpdAvg,
2010-01-09, 00:00:05,VALID,1004.89,VALID,0,VALID,95.4983,VALID,0,VALID,23.0613,VALID,282,VALID,1.58086,
2010-01-09, 00:01:05,VALID,1004.9,VALID,0,VALID,95.5136,VALID,0,VALID,23.0418,VALID,291,VALID,0.810938,
2010-01-09, 00:02:05,VALID,1004.84,VALID,0,VALID,95.4907,VALID,0,VALID,23.0613,VALID,294,VALID,0.739453,
2010-01-09, 00:03:05,VALID,1004.86,VALID,0,VALID,95.5212,VALID,0,VALID,23.0613,VALID,298,VALID,0.703125,
2010-01-09, 00:04:05,VALID,1004.83,VALID,0,VALID,95.5136,VALID,0,VALID,23.0613,VALID,323,VALID,1.10742,
2010-01-09, 00:05:05,VALID,1004.82,VALID,0,VALID,95.5212,VALID,0,VALID,23.0613,VALID,303,VALID,0.844531,
2010-01-09, 00:06:05,VALID,1004.79,VALID,0,VALID,95.5288,VALID,0,VALID,23.0418,VALID,287,VALID,2.47656,
2010-01-09, 00:07:05,VALID,1004.73,VALID,0,VALID,95.5288,VALID,0,VALID,23.0401,VALID,287,VALID,0.0121094,
2010-01-09, 00:08:05,VALID,1004.71,VALID,0,VALID,95.506,VALID,0,VALID,23.0807,VALID,272,VALID,1.42656,
2010-01-09, 00:09:05,VALID,1004.7,VALID,0,VALID,95.5212,VALID,0,VALID,23.0613,VALID,293,VALID,0.987109,
2010-01-09, 00:10:05,VALID,1004.68,VALID,0,VALID,95.5212,VALID,0,VALID,23.0807,VALID,293,VALID,0.929688,
2010-01-09, 00:11:05,VALID,1004.67,VALID,0,VALID,95.4983,VALID,0,VALID,23.0825,VALID,290,VALID,1.54297,
2010-01-09, 00:12:05,VALID,1004.65,VALID,0,VALID,95.5441,VALID,0,VALID,23.0807,VALID,35,VALID,0.273047,
2010-01-09, 00:13:05,VALID,1004.64,VALID,0,VALID,95.5212,VALID,0,VALID,23.079,VALID,276,VALID,1.36055,
2010-01-09, 00:14:05,VALID,1004.62,VALID,0,VALID,95.5212,VALID,0,VALID,23.1197,VALID,289,VALID,2.00352,
2010-01-09, 00:15:05,VALID,1004.58,VALID,0.5,VALID,95.5212,VALID,0,VALID,23.1374,VALID,304,VALID,1.43867,
2010-01-09, 00:16:05,VALID,1004.58,VALID,0,VALID,95.5212,VALID,0,VALID,23.1586,VALID,271,VALID,1.18516,
2010-01-09, 00:17:05,VALID,1004.58,VALID,0,VALID,95.506,VALID,0,VALID,23.178,VALID,47,VALID,0.940625,
2010-01-09, 00:18:05,VALID,1004.55,VALID,0,VALID,95.5136,VALID,0,VALID,23.217,VALID,304,VALID,1.12383,
2010-01-09, 00:19:05,VALID,1004.54,VALID,0,VALID,95.4983,VALID,0,VALID,23.1957,VALID,291,VALID,1.49063,
2010-01-09, 00:20:05,VALID,1004.54,VALID,0,VALID,95.5136,VALID,0,VALID,23.2364,VALID,322,VALID,1.10234,
2010-01-09, 00:21:05,VALID,1004.53,VALID,0,VALID,95.5136,VALID,0,VALID,23.2364,VALID,261,VALID,0.784766,
2010-01-09, 00:22:05,VALID,1004.51,VALID,0,VALID,95.506,VALID,0,VALID,23.2754,VALID,301,VALID,1.25898,
2010-01-09, 00:23:05,VALID,1004.49,VALID,0,VALID,95.506,VALID,0,VALID,23.2948,VALID,313,VALID,0.5625,
2010-01-09, 00:24:05,VALID,1004.46,VALID,0,VALID,95.5212,VALID,0,VALID,23.3143,VALID,288,VALID,1.31445,
2010-01-09, 00:25:05,VALID,1004.41,VALID,0,VALID,95.4907,VALID,0,VALID,23.3337,VALID,289,VALID,1.68945,
2010-01-09, 00:26:05,VALID,1004.41,VALID,0,VALID,95.4831,VALID,0,VALID,23.3532,VALID,287,VALID,0.961719,
2010-01-09, 00:27:05,VALID,1004.38,VALID,0,VALID,95.4831,VALID,0,VALID,23.3727,VALID,285,VALID,1.6625,
2010-01-09, 00:28:05,VALID,1004.36,VALID,0,VALID,95.4907,VALID,0,VALID,23.4328,VALID,264,VALID,0.563281,
2010-01-09, 00:29:05,VALID,1004.31,VALID,0,VALID,95.4754,VALID,0,VALID,23.4116,VALID,280,VALID,0.612891,
2010-01-09, 00:30:05,VALID,1004.29,VALID,0,VALID,95.4754,VALID,0,VALID,23.4116,VALID,267,VALID,0.158203,
2010-01-09, 00:31:05,VALID,1004.27,VALID,0,VALID,95.4678,VALID,0,VALID,23.4116,VALID,303,VALID,0.975781,
2010-01-09, 00:32:05,VALID,1004.24,VALID,0,VALID,95.4602,VALID,0,VALID,23.4311,VALID,293,VALID,0.580859,
2010-01-09, 00:33:05,VALID,1004.29,VALID,0,VALID,95.4754,VALID,0,VALID,23.4505,VALID,255,VALID,0.649219,
2010-01-09, 00:34:05,VALID,1004.25,VALID,0,VALID,95.4678,VALID,0,VALID,23.4505,VALID,281,VALID,0.753906,
2010-01-09, 00:35:05,VALID,1004.22,VALID,0,VALID,95.4907,VALID,0,VALID,23.4505,VALID,5,VALID,0.633984,
2010-01-09, 00:36:05,VALID,1004.21,VALID,0,VALID,95.4754,VALID,0,VALID,23.47,VALID,340,VALID,0.546094,
2010-01-09, 00:37:05,VALID,1004.14,VALID,0,VALID,95.4602,VALID,0,VALID,23.4505,VALID,294,VALID,1.03789,
2010-01-09, 00:38:05,VALID,1004.09,VALID,0,VALID,95.4678,VALID,0,VALID,23.4523,VALID,283,VALID,0.794531,
2010-01-09, 00:39:05,VALID,1004.09,VALID,0,VALID,95.4526,VALID,0,VALID,23.4912,VALID,242,VALID,0,
2010-01-09, 00:40:05,VALID,1004.11,VALID,0,VALID,95.4373,VALID,0,VALID,23.4894,VALID,303,VALID,0,
2010-01-09, 00:41:05,VALID,1004.11,VALID,0,VALID,95.4297,VALID,0,VALID,23.4894,VALID,307,VALID,0.420703,
2010-01-09, 00:42:05,VALID,1004.09,VALID,0,VALID,95.4449,VALID,0,VALID,23.4894,VALID,306,VALID,1.30469,
2010-01-09, 00:43:05,VALID,1004.08,VALID,0,VALID,95.4068,VALID,0,VALID,23.5089,VALID,268,VALID,0.652734,
2010-01-09, 00:44:05,VALID,1004.06,VALID,0,VALID,95.422,VALID,0,VALID,23.5284,VALID,275,VALID,0.952734,
2010-01-09, 00:45:05,VALID,1004.04,VALID,0,VALID,95.4068,VALID,0.100563,VALID,23.5478,VALID,307,VALID,1.07852,
2010-01-09, 00:46:05,VALID,1004.03,VALID,0,VALID,95.422,VALID,0.100563,VALID,23.5673,VALID,294,VALID,1.03008,
2010-01-09, 00:47:05,VALID,1003.99,VALID,0,VALID,95.3991,VALID,0.100563,VALID,23.546,VALID,322,VALID,0.821484,
2010-01-09, 00:48:05,VALID,1003.96,VALID,0,VALID,95.3763,VALID,0,VALID,23.5868,VALID,279,VALID,0.967969,
2010-01-09, 00:49:05,VALID,1003.94,VALID,0,VALID,95.3839,VALID,0.100563,VALID,23.5673,VALID,283,VALID,0.765625,
2010-01-09, 00:50:05,VALID,1003.85,VALID,0,VALID,95.3686,VALID,0.100563,VALID,23.546,VALID,257,VALID,0.928516,
2010-01-09, 00:51:05,VALID,1003.85,VALID,0,VALID,95.3534,VALID,0.100563,VALID,23.5266,VALID,278,VALID,0.860547,
2010-01-09, 00:52:05,VALID,1003.82,VALID,0,VALID,95.3152,VALID,0.100563,VALID,23.5053,VALID,300,VALID,0.492578,
2010-01-09, 00:53:05,VALID,1003.81,VALID,0,VALID,95.3152,VALID,0,VALID,23.5053,VALID,249,VALID,0.520312,
2010-01-09, 00:54:04,VALID,1003.78,VALID,0,VALID,95.3,VALID,0,VALID,23.5071,VALID,297,VALID,1.88242,
2010-01-09, 00:55:04,VALID,1003.79,VALID,0,VALID,95.2771,VALID,0,VALID,23.5266,VALID,289,VALID,1.11953,
2010-01-09, 00:56:04,VALID,1003.8,VALID,0,VALID,95.2313,VALID,0,VALID,23.5478,VALID,278,VALID,0.994922,
2010-01-09, 00:57:04,VALID,1003.82,VALID,0,VALID,95.2008,VALID,0.100563,VALID,23.5655,VALID,275,VALID,0.607422,
2010-01-09, 00:58:04,VALID,1003.79,VALID,0,VALID,95.155,VALID,0,VALID,23.546,VALID,313,VALID,0.547656,
2010-01-09, 00:59:04,VALID,1003.81,VALID,0,VALID,95.1321,VALID,0,VALID,23.5673,VALID,282,VALID,0.537891,
2010-01-09, 01:00:04,VALID,1003.8,VALID,0,VALID,95.1016,VALID,0,VALID,23.5478,VALID,293,VALID,0.515234,
2010-01-09, 01:01:04,VALID,1003.8,VALID,0,VALID,95.0787,VALID,0,VALID,23.5478,VALID,271,VALID,0.615234,
2010-01-09, 01:02:04,VALID,1003.78,VALID,0,VALID,95.0558,VALID,0,VALID,23.5284,VALID,274,VALID,0.741016,
2010-01-09, 01:03:04,VALID,1003.8,VALID,0,VALID,95.0482,VALID,0,VALID,23.5089,VALID,320,VALID,0.229297,
2010-01-09, 01:04:04,VALID,1003.79,VALID,0,VALID,95.0253,VALID,0,VALID,23.4894,VALID,353,VALID,0.436328,
2010-01-09, 01:05:04,VALID,1003.78,VALID,0,VALID,94.9872,VALID,0,VALID,23.4894,VALID,292,VALID,1.58477,
2010-01-09, 01:06:04,VALID,1003.78,VALID,0,VALID,94.9719,VALID,0,VALID,23.4894,VALID,50,VALID,0.538672,
2010-01-09, 01:07:04,VALID,1003.78,VALID,0,VALID,94.9719,VALID,0,VALID,23.5089,VALID,299,VALID,0.373437,
2010-01-09, 01:08:04,VALID,1003.76,VALID,0,VALID,94.9185,VALID,0,VALID,23.5284,VALID,301,VALID,0.0691406,
2010-01-09, 01:09:04,VALID,1003.72,VALID,0,VALID,94.9109,VALID,0,VALID,23.5284,VALID,310,VALID,0.501562,
2010-01-09, 01:10:04,VALID,1003.72,VALID,0,VALID,94.9109,VALID,0,VALID,23.5284,VALID,287,VALID,0.745313,
2010-01-09, 01:11:04,VALID,1003.71,VALID,0,VALID,94.888,VALID,0,VALID,23.5478,VALID,305,VALID,0.457422,
2010-01-09, 01:12:04,VALID,1003.68,VALID,0,VALID,94.888,VALID,0,VALID,23.5478,VALID,303,VALID,1.10664,
2010-01-09, 01:13:04,VALID,1003.66,VALID,0,VALID,94.8956,VALID,0,VALID,23.5673,VALID,289,VALID,0.773047,
2010-01-09, 01:14:04,VALID,1003.64,VALID,0,VALID,94.8804,VALID,0,VALID,23.5655,VALID,321,VALID,0.3375,
2010-01-09, 01:15:04,VALID,1003.63,VALID,0,VALID,94.8728,VALID,0,VALID,23.5868,VALID,321,VALID,0.173438,
2010-01-09, 01:16:04,VALID,1003.59,VALID,0,VALID,94.888,VALID,0,VALID,23.5868,VALID,306,VALID,0.803125,
2010-01-09, 01:17:04,VALID,1003.56,VALID,0,VALID,94.8728,VALID,0,VALID,23.5868,VALID,296,VALID,0.687891,
2010-01-09, 01:18:04,VALID,1003.54,VALID,0,VALID,94.8728,VALID,0,VALID,23.6062,VALID,303,VALID,0.765625,
2010-01-09, 01:19:04,VALID,1003.48,VALID,0,VALID,94.8728,VALID,0,VALID,23.6275,VALID,305,VALID,0.243359,
2010-01-09, 01:20:04,VALID,1003.48,VALID,0,VALID,94.8956,VALID,0,VALID,23.6062,VALID,305,VALID,0.615234,
2010-01-09, 01:21:04,VALID,1003.46,VALID,0,VALID,94.8804,VALID,0,VALID,23.6044,VALID,305,VALID,0,
2010-01-09, 01:22:04,VALID,1003.45,VALID,0,VALID,94.8804,VALID,0,VALID,23.6257,VALID,305,VALID,0,
2010-01-09, 01:23:04,VALID,1003.39,VALID,0,VALID,94.8651,VALID,0,VALID,23.6257,VALID,293,VALID,0.689844,
2010-01-09, 01:24:04,VALID,1003.38,VALID,0,VALID,94.9033,VALID,0,VALID,23.6044,VALID,313,VALID,0.360547,
2010-01-09, 01:25:04,VALID,1003.36,VALID,0,VALID,94.8956,VALID,0,VALID,23.6239,VALID,294,VALID,0.131641,
2010-01-09, 01:26:04,VALID,1003.31,VALID,0,VALID,94.8956,VALID,0,VALID,23.6452,VALID,272,VALID,0.514844,
2010-01-09, 01:27:04,VALID,1003.33,VALID,0,VALID,94.8956,VALID,0,VALID,23.6452,VALID,281,VALID,0.985156,
2010-01-09, 01:28:04,VALID,1003.31,VALID,0,VALID,94.9109,VALID,0,VALID,23.6239,VALID,292,VALID,0,
2010-01-09, 01:29:04,VALID,1003.29,VALID,0,VALID,94.888,VALID,0.100563,VALID,23.6628,VALID,292,VALID,0.0632813,
2010-01-09, 01:30:04,VALID,1003.23,VALID,0,VALID,94.8956,VALID,0.100563,VALID,23.6434,VALID,332,VALID,1.18711,
2010-01-09, 01:31:04,VALID,1003.21,VALID,0,VALID,94.888,VALID,0.100563,VALID,23.6221,VALID,296,VALID,0.981641,
2010-01-09, 01:32:04,VALID,1003.26,VALID,0,VALID,94.888,VALID,0.100563,VALID,23.6434,VALID,274,VALID,0.267578,
2010-01-09, 01:33:04,VALID,1003.24,VALID,0,VALID,94.888,VALID,0.100563,VALID,23.6221,VALID,279,VALID,0.592578,
2010-01-09, 01:34:04,VALID,1003.24,VALID,0,VALID,94.8575,VALID,0.100563,VALID,23.6628,VALID,277,VALID,0.363672,
2010-01-09, 01:35:04,VALID,1003.24,VALID,0,VALID,94.827,VALID,0.100563,VALID,23.6221,VALID,291,VALID,0.919141,
2010-01-09, 01:36:04,VALID,1003.22,VALID,0,VALID,94.8194,VALID,0.100563,VALID,23.6823,VALID,298,VALID,0.909375,
2010-01-09, 01:37:04,VALID,1003.26,VALID,0,VALID,94.7888,VALID,0.100563,VALID,23.6823,VALID,278,VALID,0,
2010-01-09, 01:38:04,VALID,1003.23,VALID,0,VALID,94.7812,VALID,0.100563,VALID,23.661,VALID,277,VALID,0,
2010-01-09, 01:39:04,VALID,1003.23,VALID,0,VALID,94.7812,VALID,0.100563,VALID,23.6823,VALID,237,VALID,0.455859,
2010-01-09, 01:40:04,VALID,1003.22,VALID,0,VALID,94.7431,VALID,0,VALID,23.6823,VALID,302,VALID,0.459766,
2010-01-09, 01:41:04,VALID,1003.22,VALID,0,VALID,94.7431,VALID,0.100563,VALID,23.661,VALID,305,VALID,0.551172,
2010-01-09, 01:42:04,VALID,1003.21,VALID,0,VALID,94.6897,VALID,0,VALID,23.6805,VALID,301,VALID,1.40039,
2010-01-09, 01:43:04,VALID,1003.21,VALID,0,VALID,94.6591,VALID,0.100563,VALID,23.7212,VALID,294,VALID,0.241406,
2010-01-09, 01:44:04,VALID,1003.17,VALID,0,VALID,94.6363,VALID,0,VALID,23.723,VALID,279,VALID,0.413672,
2010-01-09, 01:45:04,VALID,1003.19,VALID,0,VALID,94.5981,VALID,0,VALID,23.723,VALID,321,VALID,0.642578,
2010-01-09, 01:46:04,VALID,1003.16,VALID,0,VALID,94.5371,VALID,0,VALID,23.7425,VALID,288,VALID,0.592188,
2010-01-09, 01:47:04,VALID,1003.15,VALID,0,VALID,94.5142,VALID,0,VALID,23.7425,VALID,274,VALID,0.475391,
2010-01-09, 01:48:04,VALID,1003.16,VALID,0,VALID,94.4761,VALID,0,VALID,23.7619,VALID,207,VALID,0.614453,
2010-01-09, 01:49:04,VALID,1003.16,VALID,0,VALID,94.4532,VALID,0.100563,VALID,23.7814,VALID,268,VALID,0.0492188,
2010-01-09, 01:50:04,VALID,1003.13,VALID,0,VALID,94.3921,VALID,0,VALID,23.8009,VALID,210,VALID,1.08438,
2010-01-09, 01:51:04,VALID,1003.12,VALID,0,VALID,94.3464,VALID,0,VALID,23.8787,VALID,228,VALID,0.485938,
2010-01-09, 01:52:04,VALID,1003.12,VALID,0,VALID,94.2777,VALID,0,VALID,23.8982,VALID,279,VALID,0.741016,
2010-01-09, 01:53:04,VALID,1003.12,VALID,0,VALID,94.1938,VALID,0,VALID,23.9177,VALID,249,VALID,0.577344,
2010-01-09, 01:54:04,VALID,1003.09,VALID,0,VALID,94.0565,VALID,0,VALID,23.9371,VALID,309,VALID,0.65,
2010-01-09, 01:55:04,VALID,1003.09,VALID,0,VALID,93.942,VALID,0,VALID,23.9761,VALID,4,VALID,0.645703,
2010-01-09, 01:56:04,VALID,1003.04,VALID,0,VALID,93.8505,VALID,0,VALID,24.015,VALID,248,VALID,0.0152344,
2010-01-09, 01:57:04,VALID,1003.05,VALID,0,VALID,93.7284,VALID,0,VALID,24.015,VALID,264,VALID,1.20156,
2010-01-09, 01:58:04,VALID,1003.04,VALID,0,VALID,93.6445,VALID,0,VALID,24.0345,VALID,255,VALID,0.369531,
2010-01-09, 01:59:04,VALID,1003.03,VALID,0,VALID,93.553,VALID,0.100563,VALID,24.0345,VALID,197,VALID,0.516016,
2010-01-09, 02:00:04,VALID,1003,VALID,0,VALID,93.4614,VALID,0,VALID,24.0132,VALID,286,VALID,0.4875,
2010-01-09, 02:01:04,VALID,1003,VALID,0,VALID,93.3775,VALID,0.100563,VALID,24.0132,VALID,215,VALID,0.6875,
2010-01-09, 02:02:04,VALID,1002.94,VALID,0,VALID,93.2402,VALID,0.100563,VALID,24.0132,VALID,263,VALID,0.544922,
2010-01-09, 02:03:04,VALID,1002.94,VALID,0,VALID,93.1257,VALID,0.100563,VALID,24.0326,VALID,265,VALID,0.703516,
2010-01-09, 02:04:04,VALID,1002.91,VALID,0,VALID,93.0571,VALID,0.100563,VALID,24.0132,VALID,284,VALID,0.453125,
2010-01-09, 02:05:04,VALID,1002.92,VALID,0,VALID,93.0037,VALID,0,VALID,24.0521,VALID,253,VALID,0.371875,
2010-01-09, 02:06:04,VALID,1002.91,VALID,0,VALID,92.7977,VALID,0.100563,VALID,24.0716,VALID,203,VALID,1.32734,
2010-01-09, 02:07:04,VALID,1002.89,VALID,0,VALID,92.5765,VALID,0.100563,VALID,24.1105,VALID,274,VALID,0.705859,
2010-01-09, 02:08:04,VALID,1002.85,VALID,0,VALID,92.4773,VALID,0,VALID,24.1105,VALID,223,VALID,0.361719,
2010-01-09, 02:09:04,VALID,1002.9,VALID,0,VALID,92.4849,VALID,0,VALID,24.13,VALID,274,VALID,0.392188,
2010-01-09, 02:10:04,VALID,1002.88,VALID,0,VALID,92.4849,VALID,0.100563,VALID,24.0892,VALID,222,VALID,0.9625,
2010-01-09, 02:11:04,VALID,1002.88,VALID,0,VALID,92.5383,VALID,0.100563,VALID,24.1105,VALID,257,VALID,0.699609,
2010-01-09, 02:12:04,VALID,1002.86,VALID,0,VALID,92.5765,VALID,0,VALID,24.1105,VALID,315,VALID,0.517969,
2010-01-09, 02:13:04,VALID,1002.83,VALID,0,VALID,92.6222,VALID,0,VALID,24.1123,VALID,204,VALID,0.430859,
2010-01-09, 02:14:04,VALID,1002.85,VALID,0,VALID,92.4925,VALID,0,VALID,24.091,VALID,284,VALID,2.14531,
2010-01-09, 02:15:04,VALID,1002.81,VALID,0,VALID,92.5154,VALID,0,VALID,24.1105,VALID,224,VALID,0.6,
2010-01-09, 02:16:04,VALID,1002.81,VALID,0,VALID,92.4697,VALID,0,VALID,24.1105,VALID,247,VALID,0.746875,
2010-01-09, 02:17:04,VALID,1002.8,VALID,0,VALID,92.401,VALID,0.100563,VALID,24.1105,VALID,288,VALID,1.85547,
2010-01-09, 02:18:04,VALID,1002.75,VALID,0,VALID,92.3095,VALID,0,VALID,24.1513,VALID,308,VALID,0.684766,
2010-01-09, 02:19:04,VALID,1002.77,VALID,0,VALID,92.3247,VALID,0.100563,VALID,24.1689,VALID,280,VALID,0.677734,
2010-01-09, 02:20:04,VALID,1002.76,VALID,0,VALID,92.1798,VALID,0,VALID,24.1494,VALID,216,VALID,0.969141,
2010-01-09, 02:21:04,VALID,1002.73,VALID,0,VALID,92.1035,VALID,0,VALID,24.1884,VALID,205,VALID,0.622656,
2010-01-09, 02:22:04,VALID,1002.75,VALID,0,VALID,92.0653,VALID,0,VALID,24.1902,VALID,268,VALID,0.655469,
2010-01-09, 02:23:04,VALID,1002.72,VALID,0,VALID,91.9738,VALID,0.100563,VALID,24.2078,VALID,245,VALID,0.526953,
2010-01-09, 02:24:04,VALID,1002.71,VALID,0,VALID,91.989,VALID,0.100563,VALID,24.2273,VALID,233,VALID,0.288281,
2010-01-09, 02:25:04,VALID,1002.66,VALID,0,VALID,92.1035,VALID,0,VALID,24.2273,VALID,227,VALID,0.141406,
2010-01-09, 02:26:04,VALID,1002.69,VALID,0,VALID,92.1111,VALID,0,VALID,24.2078,VALID,266,VALID,0.516406,
2010-01-09, 02:27:04,VALID,1002.71,VALID,0,VALID,92.0501,VALID,0,VALID,24.2078,VALID,228,VALID,0.633984,
2010-01-09, 02:28:04,VALID,1002.67,VALID,0,VALID,92.0653,VALID,0,VALID,24.2273,VALID,240,VALID,0.0445312,
2010-01-09, 02:29:04,VALID,1002.69,VALID,0,VALID,91.989,VALID,0,VALID,24.2468,VALID,246,VALID,0.631641,
2010-01-09, 02:30:04,VALID,1002.68,VALID,0,VALID,92.073,VALID,0,VALID,24.2468,VALID,280,VALID,0.409375,
2010-01-09, 02:31:04,VALID,1002.67,VALID,0,VALID,92.1035,VALID,0,VALID,24.2468,VALID,249,VALID,0.00195313,
2010-01-09, 02:32:04,VALID,1002.65,VALID,0,VALID,92.2179,VALID,0,VALID,24.2273,VALID,213,VALID,0.426562,
2010-01-09, 02:33:04,VALID,1002.66,VALID,0,VALID,92.2561,VALID,0,VALID,24.2486,VALID,181,VALID,0.104687,
2010-01-09, 02:34:04,VALID,1002.61,VALID,0,VALID,92.2789,VALID,0.100563,VALID,24.2468,VALID,234,VALID,0.242578,
2010-01-09, 02:35:04,VALID,1002.61,VALID,0,VALID,92.3247,VALID,0.100563,VALID,24.2681,VALID,227,VALID,0.490625,
2010-01-09, 02:36:04,VALID,1002.62,VALID,0,VALID,92.3629,VALID,0,VALID,24.2273,VALID,224,VALID,0.448828,
2010-01-09, 02:37:04,VALID,1002.59,VALID,0,VALID,92.2332,VALID,0,VALID,24.2468,VALID,311,VALID,1.23828,
2010-01-09, 02:38:04,VALID,1002.61,VALID,0,VALID,91.9509,VALID,0,VALID,24.2857,VALID,228,VALID,1.19258,
2010-01-09, 02:39:04,VALID,1002.58,VALID,0,VALID,91.722,VALID,0,VALID,24.3441,VALID,249,VALID,1.16133,
2010-01-09, 02:40:04,VALID,1002.6,VALID,0,VALID,91.6763,VALID,0,VALID,24.383,VALID,217,VALID,0.164063,
2010-01-09, 02:41:04,VALID,1002.59,VALID,0,VALID,91.6686,VALID,0.100563,VALID,24.383,VALID,217,VALID,0.298047,
2010-01-09, 02:42:04,VALID,1002.59,VALID,0,VALID,91.6229,VALID,0,VALID,24.3636,VALID,283,VALID,0.302344,
2010-01-09, 02:43:04,VALID,1002.56,VALID,0,VALID,91.6763,VALID,0,VALID,24.3849,VALID,313,VALID,0.460547,
2010-01-09, 02:44:04,VALID,1002.56,VALID,0,VALID,91.5771,VALID,0,VALID,24.3849,VALID,272,VALID,0.300781,
2010-01-09, 02:45:04,VALID,1002.57,VALID,0,VALID,91.6,VALID,0,VALID,24.3636,VALID,262,VALID,0.773438,
2010-01-09, 02:46:04,VALID,1002.56,VALID,0,VALID,91.5389,VALID,0.100563,VALID,24.3441,VALID,298,VALID,0.647656,
2010-01-09, 02:47:04,VALID,1002.55,VALID,0,VALID,91.455,VALID,0.100563,VALID,24.3636,VALID,258,VALID,0.445313,
2010-01-09, 02:48:04,VALID,1002.54,VALID,0,VALID,91.4474,VALID,0,VALID,24.3636,VALID,223,VALID,0.0523437,
2010-01-09, 02:49:04,VALID,1002.55,VALID,0,VALID,91.1804,VALID,0,VALID,24.383,VALID,313,VALID,1.57461,
2010-01-09, 02:50:04,VALID,1002.55,VALID,0,VALID,90.9744,VALID,0.100563,VALID,24.4414,VALID,276,VALID,0.603516,
2010-01-09, 02:51:04,VALID,1002.53,VALID,0,VALID,90.4175,VALID,0.100563,VALID,24.4804,VALID,267,VALID,1.16094,
2010-01-09, 02:52:04,VALID,1002.52,VALID,0,VALID,90.1276,VALID,0,VALID,24.5388,VALID,227,VALID,0.952344,
2010-01-09, 02:53:04,VALID,1002.49,VALID,0,VALID,90.0132,VALID,0.100563,VALID,24.5388,VALID,260,VALID,1.82305,
2010-01-09, 02:54:04,VALID,1002.49,VALID,0,VALID,89.7919,VALID,0.100563,VALID,24.5777,VALID,258,VALID,0.996875,
2010-01-09, 02:55:04,VALID,1002.49,VALID,0,VALID,89.8224,VALID,0.100563,VALID,24.5953,VALID,292,VALID,0.446484,
2010-01-09, 02:56:04,VALID,1002.5,VALID,0,VALID,89.5936,VALID,0,VALID,24.6556,VALID,293,VALID,1.48242,
2010-01-09, 02:57:04,VALID,1002.51,VALID,0,VALID,89.5783,VALID,0.100563,VALID,24.675,VALID,253,VALID,0.879297,
2010-01-09, 02:58:04,VALID,1002.46,VALID,0,VALID,89.6241,VALID,0,VALID,24.6537,VALID,287,VALID,1.44258,
2010-01-09, 02:59:04,VALID,1002.46,VALID,0,VALID,89.4639,VALID,0,VALID,24.6964,VALID,264,VALID,0.709766,
2010-01-09, 03:00:04,VALID,1002.47,VALID,0,VALID,89.2732,VALID,0.100563,VALID,24.6964,VALID,299,VALID,1.0125,
2010-01-09, 03:01:04,VALID,1002.47,VALID,0,VALID,89.5554,VALID,0,VALID,24.7159,VALID,302,VALID,0.448828,
2010-01-09, 03:02:04,VALID,1002.49,VALID,0,VALID,89.4944,VALID,0,VALID,24.7159,VALID,222,VALID,0.649609,
2010-01-09, 03:03:04,VALID,1002.45,VALID,0,VALID,89.6775,VALID,0,VALID,24.7159,VALID,287,VALID,0.298438,
2010-01-09, 03:04:04,VALID,1002.46,VALID,0,VALID,89.5478,VALID,0,VALID,24.7159,VALID,289,VALID,0.672266,
2010-01-09, 03:05:04,VALID,1002.42,VALID,0,VALID,89.5249,VALID,0,VALID,24.7353,VALID,299,VALID,1.05273,
2010-01-09, 03:06:04,VALID,1002.45,VALID,0,VALID,89.6927,VALID,0,VALID,24.7548,VALID,281,VALID,0.429688,
2010-01-09, 03:07:04,VALID,1002.41,VALID,0,VALID,89.5402,VALID,0,VALID,24.7353,VALID,270,VALID,1.04492,
2010-01-09, 03:08:04,VALID,1002.4,VALID,0,VALID,89.4944,VALID,0,VALID,24.7548,VALID,268,VALID,1.08906,
2010-01-09, 03:09:04,VALID,1002.42,VALID,0,VALID,89.2808,VALID,0,VALID,24.7743,VALID,263,VALID,0.855859,
2010-01-09, 03:10:04,VALID,1002.44,VALID,0,VALID,88.2051,VALID,0,VALID,24.7937,VALID,248,VALID,1.69609,
2010-01-09, 03:11:04,VALID,1002.44,VALID,0,VALID,88.0296,VALID,0,VALID,24.8735,VALID,245,VALID,1.15898,
2010-01-09, 03:12:04,VALID,1002.44,VALID,0,VALID,87.9,VALID,0,VALID,24.8911,VALID,258,VALID,1.35859,
2010-01-09, 03:13:04,VALID,1002.43,VALID,0,VALID,88.1746,VALID,0,VALID,24.9106,VALID,196,VALID,0.497266,
2010-01-09, 03:14:04,VALID,1002.45,VALID,0,VALID,87.7092,VALID,0,VALID,24.8911,VALID,265,VALID,2.04961,
2010-01-09, 03:15:04,VALID,1002.43,VALID,0,VALID,88.0449,VALID,0,VALID,24.9106,VALID,276,VALID,0.445313,
2010-01-09, 03:16:04,VALID,1002.38,VALID,0,VALID,87.4422,VALID,0,VALID,24.9125,VALID,292,VALID,1.48359,
2010-01-09, 03:17:04,VALID,1002.45,VALID,0,VALID,86.9998,VALID,0,VALID,24.9106,VALID,255,VALID,1.05625,
2010-01-09, 03:18:04,VALID,1002.42,VALID,0,VALID,86.9769,VALID,0,VALID,24.93,VALID,231,VALID,0.866016,
2010-01-09, 03:19:04,VALID,1002.45,VALID,0,VALID,86.4047,VALID,0,VALID,24.93,VALID,222,VALID,1.26641,
2010-01-09, 03:20:04,VALID,1002.43,VALID,0,VALID,86.3971,VALID,0,VALID,24.9514,VALID,112,VALID,0.528125,
2010-01-09, 03:21:04,VALID,1002.42,VALID,0,VALID,86.7785,VALID,0,VALID,24.9495,VALID,35,VALID,0.380859,
2010-01-09, 03:22:04,VALID,1002.42,VALID,0,VALID,86.5115,VALID,0,VALID,24.9106,VALID,183,VALID,0.602344,
2010-01-09, 03:23:04,VALID,1002.41,VALID,0,VALID,86.4428,VALID,0,VALID,24.8911,VALID,254,VALID,0.974609,
2010-01-09, 03:24:04,VALID,1002.41,VALID,0,VALID,85.8096,VALID,0,VALID,24.8716,VALID,270,VALID,1.93672,
2010-01-09, 03:25:04,VALID,1002.38,VALID,0,VALID,85.0544,VALID,0,VALID,24.8892,VALID,258,VALID,1.90078,
2010-01-09, 03:26:04,VALID,1002.37,VALID,0,VALID,84.9323,VALID,0,VALID,25.0079,VALID,285,VALID,0.592578,
2010-01-09, 03:27:04,VALID,1002.36,VALID,0,VALID,84.8866,VALID,0,VALID,25.0469,VALID,290,VALID,0.782422,
2010-01-09, 03:28:04,VALID,1002.36,VALID,0,VALID,84.3373,VALID,0,VALID,25.0858,VALID,223,VALID,0.827344,
2010-01-09, 03:29:04,VALID,1002.36,VALID,0,VALID,84.2686,VALID,0,VALID,25.1034,VALID,251,VALID,1.34609,
2010-01-09, 03:30:04,VALID,1002.29,VALID,0,VALID,84.2686,VALID,0,VALID,25.1053,VALID,208,VALID,0.972266,
2010-01-09, 03:31:04,VALID,1002.29,VALID,0,VALID,84.1084,VALID,0,VALID,25.1248,VALID,280,VALID,1.84805,
2010-01-09, 03:32:04,VALID,1002.32,VALID,0,VALID,84.1618,VALID,0,VALID,25.1442,VALID,345,VALID,0.842969,
2010-01-09, 03:33:04,VALID,1002.35,VALID,0,VALID,83.6659,VALID,0,VALID,25.1851,VALID,301,VALID,2.10547,
2010-01-09, 03:34:04,VALID,1002.32,VALID,0,VALID,83.6049,VALID,0,VALID,25.224,VALID,262,VALID,1.68125,
2010-01-09, 03:35:04,VALID,1002.3,VALID,0,VALID,83.0098,VALID,0,VALID,25.2416,VALID,250,VALID,2.12773,
2010-01-09, 03:36:04,VALID,1002.31,VALID,0,VALID,83.2769,VALID,0,VALID,25.2806,VALID,243,VALID,1.18672,
2010-01-09, 03:37:04,VALID,1002.3,VALID,0,VALID,83.8414,VALID,0,VALID,25.2806,VALID,232,VALID,0.792578,
2010-01-09, 03:38:04,VALID,1002.33,VALID,0,VALID,84.0321,VALID,0,VALID,25.2611,VALID,268,VALID,0.664063,
2010-01-09, 03:39:04,VALID,1002.29,VALID,0,VALID,83.788,VALID,0,VALID,25.2416,VALID,258,VALID,1.16562,
2010-01-09, 03:40:04,VALID,1002.32,VALID,0,VALID,83.7651,VALID,0,VALID,25.2611,VALID,225,VALID,0.375,
2010-01-09, 03:41:04,VALID,1002.36,VALID,0,VALID,83.3837,VALID,0,VALID,25.2806,VALID,205,VALID,0.635938,
2010-01-09, 03:42:04,VALID,1002.34,VALID,0,VALID,83.315,VALID,0,VALID,25.2592,VALID,252,VALID,0.850781,